IRIDIUM 72 [P] (25343 NORAD) Tracking and Keplerian Element Data

This shows tracking and keplerian element data for the satellite.

Feedback or suggestion? Click here.




ElementValue
Catalog25343
NameIRIDIUM 72 [P]
Epoch Orbit4669
Epoch Day133.8889108
Epoch Year2018
RAAN84.1089
Inclination86.3589
Eccentricity0.0049325
Argument of Perigee121.6779
Mean Anonmoly238.8899
Mean Motion16.40946683
Decay Rate0.18300456
L11 25343U 98032B 18133.88891080 .18300456 -19437-5 35149-3 0 9999
L22 25343 86.3589 84.1089 0049325 121.6779 238.8899 16.40946683 46693

Live tracking and technical data element details for IRIDIUM 72 [P] (NORAD 25343). IRIDIUM 72 [P] can be tracked NOW for your location showing map with azimuth and elevation plus other details from your city location.

Track the satellite on the map from your city or location and see movement details for azimuth, elevation, latitude, longitude, range, height, and movement on the map or in text.







IsCatalogInMostPopularTable: catalog: 25343, numindb: 33
Update: records affected: 1



GetName: 25343 IRIDIUM 72 [P]

Hit Count: updated at: Fri, 20 Jul 2018 07:00:33 GMT